KB2UHF-8 Weather Reports


Display with metric or nautical units.
time (UTC)temp
F
wind
direction
speed
MPH
gust
MPH
rain 1hr
in
rain 24hr
in
rain mn
in
humidity
%
barometer
mb
20260509033536 60 225 2.0 5.0 0.00 0.00 0.00 39 1002.9
20260509032516 60 225 1.0 3.0 0.00 0.00 0.00 38 1002.9
20260509031515 60 225 1.0 3.0 0.00 0.00 0.00 38 1003.0
20260509030516 60 225 1.0 3.0 0.00 0.00 0.00 37 1002.9
20260509025515 61 203 2.0 5.0 0.00 0.00 0.00 37 1003.1
20260509024535 62 225 2.0 4.0 0.00 0.00 0.00 35 1003.2
20260509023557 61 225 1.0 4.0 0.00 0.00 0.00 35 1003.1
20260509022515 61 0.0 3.0 0.00 0.00 0.00 34 1003.0
20260509021515 61 0.0 3.0 0.00 0.00 0.00 33 1002.8
20260509020516 61 0.0 1.0 0.00 0.00 0.00 34 1002.9
20260509015536 62 225 1.0 2.0 0.00 0.00 0.00 34 1002.8
20260509014516 62 0.0 1.0 0.00 0.00 0.00 33 1002.7
20260509013516 63 0.0 1.0 0.00 0.00 0.00 32 1002.6
20260509012515 63 0.0 2.0 0.00 0.00 0.00 32 1002.8
20260509011515 64 225 2.0 3.0 0.00 0.00 0.00 32 1002.7
20260509010515 65 225 2.0 3.0 0.00 0.00 0.00 31 1002.8
20260509005515 65 225 2.0 4.0 0.00 0.00 0.00 30 1002.9
20260509004517 66 225 1.0 2.0 0.00 0.00 0.00 30 1002.7
20260509003516 67 225 3.0 5.0 0.00 0.00 0.00 30 1002.9
20260509002515 68 248 4.0 8.0 0.00 0.00 0.00 26 1003.0
20260509001515 68 225 4.0 8.0 0.00 0.00 0.00 27 1003.0
20260509000516 68 225 5.0 11.0 0.00 0.00 0.00 26 1003.1
20260508235515 68 225 3.0 7.0 0.00 0.00 0.00 29 1003.0
20260508234535 68 248 4.0 11.0 0.00 0.00 0.00 28 1003.2
20260508233535 68 248 6.0 11.0 0.00 0.00 0.00 27 1003.2
20260508232515 67 248 5.0 11.0 0.00 0.00 0.00 28 1003.3
20260508231515 68 225 5.0 13.0 0.00 0.00 0.00 27 1003.4
20260508230515 68 248 7.0 15.0 0.00 0.00 0.00 26 1003.6
20260508225515 68 248 9.0 17.0 0.00 0.00 0.00 26 1003.6
20260508224515 68 248 8.0 13.0 0.00 0.00 0.00 25 1003.7
20260508223515 69 225 9.0 13.0 0.00 0.00 0.00 25 1003.7
20260508222515 69 270 9.0 15.0 0.00 0.00 0.00 24 1003.7
20260508221517 69 270 7.0 15.0 0.00 0.00 0.00 26 1003.9
20260508220517 69 293 7.0 15.0 0.00 0.00 0.00 25 1003.9
20260508215517 69 270 9.0 23.0 0.00 0.00 0.00 25 1004.1
20260508214539 69 248 9.0 21.0 0.00 0.00 0.00 24 1004.1
20260508213517 69 248 9.0 19.0 0.00 0.00 0.00 27 1004.3
20260508212517 69 270 8.0 14.0 0.00 0.00 0.00 24 1004.5
20260508211517 69 270 6.0 13.0 0.00 0.00 0.00 24 1004.5
20260508210517 69 248 7.0 12.0 0.00 0.00 0.00 29 1004.8
20260508205517 69 225 7.0 13.0 0.00 0.00 0.00 30 1005.0
20260508204517 68 225 9.0 16.0 0.00 0.00 0.00 26 1004.9
20260508203519 68 225 7.0 15.0 0.00 0.00 0.00 27 1005.4
20260508202517 67 248 7.0 15.0 0.00 0.00 0.00 25 1005.4
20260508201517 68 225 9.0 21.0 0.00 0.00 0.00 26 1005.6
20260508200517 67 225 6.0 14.0 0.00 0.00 0.00 26 1005.7
20260508195517 67 225 11.0 19.0 0.00 0.00 0.00 26 1006.1
20260508194517 67 248 9.0 18.0 0.00 0.00 0.00 29 1006.2
20260508193517 65 225 6.0 16.0 0.00 0.00 0.00 28 1006.3
20260508192519 65 225 7.0 15.0 0.00 0.00 0.00 30 1006.4
20260508191517 66 225 8.0 15.0 0.00 0.00 0.00 27 1006.6
20260508190517 66 225 8.0 20.0 0.00 0.00 0.00 28 1006.7
20260508185517 66 293 5.0 10.0 0.00 0.00 0.00 31 1007.0
20260508184517 65 248 8.0 18.0 0.00 0.00 0.00 27 1006.9
20260508183517 65 225 4.0 9.0 0.00 0.00 0.00 27 1007.0
20260508182517 65 225 8.0 17.0 0.00 0.00 0.00 30 1007.2
20260508181517 65 225 3.0 8.0 0.00 0.00 0.00 33 1007.3
20260508180517 65 225 7.0 17.0 0.00 0.00 0.00 32 1007.5
20260508175517 64 248 7.0 12.0 0.00 0.00 0.00 27 1007.4
20260508174517 64 225 6.0 14.0 0.00 0.00 0.00 31 1007.7
20260508173518 64 225 7.0 18.0 0.00 0.00 0.00 33 1007.8
20260508172517 63 225 9.0 14.0 0.00 0.00 0.00 30 1008.2
20260508171517 64 270 5.0 10.0 0.00 0.00 0.00 33 1008.3
20260508170538 63 225 7.0 12.0 0.00 0.00 0.00 29 1008.4
20260508165517 63 225 6.0 13.0 0.00 0.00 0.00 36 1008.7
20260508164516 63 225 4.0 13.0 0.00 0.00 0.00 32 1008.8
20260508163517 63 248 2.0 8.0 0.00 0.00 0.00 32 1008.9
20260508162518 62 203 4.0 9.0 0.00 0.00 0.00 32 1009.1
20260508161517 62 225 5.0 11.0 0.00 0.00 0.00 37 1009.2
20260508160517 61 248 5.0 9.0 0.00 0.00 0.00 34 1009.4
20260508155517 60 203 5.0 11.0 0.00 0.00 0.00 39 1009.4
20260508154517 60 225 5.0 10.0 0.00 0.00 0.00 37 1009.6
20260508153518 60 203 4.0 8.0 0.00 0.00 0.00 38 1009.8
20260508152517 59 225 4.0 10.0 0.00 0.00 0.00 39 1009.9
20260508151517 58 203 4.0 8.0 0.00 0.00 0.00 39 1009.9
20260508150517 57 225 5.0 10.0 0.00 0.00 0.00 39 1009.8
20260508145517 57 225 4.0 10.0 0.00 0.00 0.00 41 1009.9
20260508144517 55 225 4.0 9.0 0.00 0.00 0.00 45 1010.0
20260508143517 54 225 4.0 12.0 0.00 0.00 0.00 43 1009.8
20260508142516 53 225 5.0 12.0 0.00 0.00 0.00 46 1009.9
20260508141517 52 225 5.0 12.0 0.00 0.00 0.00 46 1009.9
20260508140516 51 225 5.0 11.0 0.00 0.00 0.00 49 1010.0
20260508135516 50 225 4.0 8.0 0.00 0.00 0.00 52 1010.0
20260508134516 49 225 4.0 7.0 0.00 0.00 0.00 51 1009.8
20260508133537 49 225 4.0 7.0 0.00 0.00 0.00 50 1009.9
20260508132518 48 225 2.0 6.0 0.00 0.00 0.00 53 1009.9
20260508131516 47 225 3.0 8.0 0.00 0.00 0.00 53 1010.0
20260508130516 46 203 3.0 9.0 0.00 0.00 0.00 53 1010.0
20260508125517 46 203 2.0 7.0 0.00 0.00 0.00 55 1010.2
20260508124537 45 225 2.0 7.0 0.00 0.00 0.00 56 1010.1
20260508123516 44 225 1.0 4.0 0.00 0.00 0.00 56 1009.9
20260508122516 43 203 2.0 6.0 0.00 0.00 0.00 56 1009.8
20260508121516 42 225 2.0 4.0 0.00 0.00 0.00 57 1009.9
20260508120516 42 180 1.0 4.0 0.00 0.00 0.00 59 1009.8
20260508115517 40 0.0 3.0 0.00 0.00 0.00 60 1009.8
20260508114516 40 0.0 3.0 0.00 0.00 0.00 61 1009.7
20260508113536 39 0.0 1.0 0.00 0.00 0.00 60 1009.7
20260508112516 39 0.0 0.0 0.00 0.00 0.00 59 1009.8
20260508111516 39 0.0 1.0 0.00 0.00 0.00 59 1009.7
20260508110516 38 0.0 3.0 0.00 0.00 0.00 59 1009.7
20260508105516 38 0.0 2.0 0.00 0.00 0.00 60 1009.7
20260508104536 38 180 1.0 5.0 0.00 0.00 0.00 59 1009.7
20260508103516 38 180 1.0 4.0 0.00 0.00 0.00 59 1009.7
20260508102516 38 203 1.0 4.0 0.00 0.00 0.00 58 1009.8
20260508101516 38 180 1.0 4.0 0.00 0.00 0.00 59 1009.8
20260508100516 37 180 1.0 3.0 0.00 0.00 0.00 59 1009.8
20260508095516 38 158 2.0 4.0 0.00 0.00 0.00 59 1009.9
20260508094536 38 158 2.0 4.0 0.00 0.00 0.00 58 1009.9
20260508093516 39 180 2.0 3.0 0.00 0.00 0.00 57 1010.0
20260508092516 39 180 1.0 2.0 0.00 0.00 0.00 56 1010.2
20260508091516 39 180 1.0 3.0 0.00 0.00 0.00 56 1010.2
20260508090518 39 203 1.0 3.0 0.00 0.00 0.00 55 1010.4
20260508085516 39 180 1.0 4.0 0.00 0.00 0.00 55 1010.5
20260508084516 39 203 1.0 4.0 0.00 0.00 0.00 55 1010.2
20260508083536 39 180 1.0 3.0 0.00 0.00 0.00 55 1010.3
20260508082516 39 0.0 2.0 0.00 0.00 0.00 55 1010.4
20260508081516 39 180 1.0 2.0 0.00 0.00 0.00 54 1010.4
20260508080519 39 180 2.0 4.0 0.00 0.00 0.00 54 1010.4
20260508075517 39 158 1.0 2.0 0.00 0.00 0.00 54 1010.4
20260508074516 39 0.0 3.0 0.00 0.00 0.00 53 1010.4
20260508073516 40 0.0 3.0 0.00 0.00 0.00 51 1010.5
20260508072516 41 180 2.0 4.0 0.00 0.00 0.00 50 1010.6
20260508071516 40 158 1.0 2.0 0.00 0.00 0.00 49 1010.5
20260508070516 40 0.0 0.0 0.00 0.00 0.00 51 1010.7
20260508065516 40 0.0 3.0 0.00 0.00 0.00 51 1010.8
20260508064516 40 158 1.0 3.0 0.00 0.00 0.00 51 1010.9
20260508063516 39 180 1.0 4.0 0.00 0.00 0.00 52 1010.8
20260508062516 39 0.0 2.0 0.00 0.00 0.00 57 1011.0
20260508061516 40 0.0 2.0 0.00 0.00 0.00 54 1011.2
20260508060536 41 0.0 1.0 0.00 0.00 0.00 51 1011.1
20260508055516 42 180 3.0 5.0 0.00 0.00 0.00 50 1011.3
20260508054516 43 135 2.0 3.0 0.00 0.00 0.00 48 1011.4
20260508053516 43 135 3.0 4.0 0.00 0.00 0.00 45 1011.2
20260508052516 43 158 2.0 3.0 0.00 0.00 0.00 46 1011.4
20260508051516 43 158 2.0 3.0 0.00 0.00 0.00 45 1011.5
20260508050536 44 135 2.0 3.0 0.00 0.00 0.00 45 1011.6
20260508045516 45 135 3.0 4.0 0.00 0.00 0.00 42 1011.5
20260508044517 44 135 3.0 4.0 0.00 0.00 0.00 44 1011.4
20260508043518 45 135 3.0 4.0 0.00 0.00 0.00 41 1011.5
20260508042516 46 113 2.0 3.0 0.00 0.00 0.00 40 1011.6
20260508041518 46 113 2.0 3.0 0.00 0.00 0.00 40 1011.7
20260508040516 46 113 2.0 3.0 0.00 0.00 0.00 39 1011.8
20260508035537 47 113 2.0 3.0 0.00 0.00 0.00 38 1011.8
20260508034516 47 45 1.0 2.0 0.00 0.00 0.00 37 1011.8